Time,TemperatureF,DewpointF,PressureIn,WindDirection,WindDirectionDegrees,WindSpeedMPH,WindSpeedGustMPH,Humidity,HourlyPrecipIn,Conditions,Clouds,dailyrainin,SolarRadiationWatts/m^2,SoftwareType,DateUTC
2013-06-26 00:01:00,60.0,57.0,-100.00,NW,325,6.0,11.0,89,0.00,,,0.00,0.000000,,2013-06-26 04:01:00,
2013-06-26 00:33:00,58.0,57.0,-100.00,NNE,19,1.0,7.0,96,0.00,,,0.00,0.000000,,2013-06-26 04:33:00,
2013-06-26 00:43:00,58.0,57.0,-100.00,NNE,19,1.0,7.0,96,0.00,,,0.00,0.000000,,2013-06-26 04:43:00,
2013-06-26 00:53:00,58.0,57.0,-100.00,NNE,19,1.0,7.0,96,0.00,,,0.00,0.000000,,2013-06-26 04:53:00,
2013-06-26 01:02:00,58.0,57.0,-100.00,NNE,19,1.0,7.0,96,0.00,,,0.00,0.000000,,2013-06-26 05:02:00,
2013-06-26 01:34:00,58.0,57.0,-100.00,North,354,3.0,6.0,98,0.00,,,0.00,0.000000,,2013-06-26 05:34:00,
2013-06-26 01:43:00,58.0,57.0,-100.00,North,354,3.0,6.0,98,0.00,,,0.00,0.000000,,2013-06-26 05:43:00,
2013-06-26 01:52:00,58.0,57.0,-100.00,North,354,3.0,6.0,98,0.00,,,0.00,0.000000,,2013-06-26 05:52:00,
2013-06-26 02:02:00,58.0,57.0,-100.00,North,354,3.0,6.0,98,0.00,,,0.00,0.000000,,2013-06-26 06:02:00,
2013-06-26 02:34:00,58.0,57.0,-100.00,NNW,340,3.0,8.0,95,0.00,,,0.00,0.000000,,2013-06-26 06:34:00,
2013-06-26 02:44:00,58.0,57.0,-100.00,NNW,340,3.0,8.0,95,0.00,,,0.00,0.000000,,2013-06-26 06:44:00,
2013-06-26 02:53:00,58.0,57.0,-100.00,NNW,340,3.0,8.0,95,0.00,,,0.00,0.000000,,2013-06-26 06:53:00,
2013-06-26 03:01:00,58.0,57.0,-100.00,NNW,340,3.0,8.0,95,0.00,,,0.00,0.000000,,2013-06-26 07:01:00,
2013-06-26 03:33:00,58.0,57.0,-100.00,NNW,347,4.0,7.0,95,0.00,,,0.00,0.000000,,2013-06-26 07:33:00,
2013-06-26 03:43:00,58.0,57.0,-100.00,NNW,347,4.0,7.0,95,0.00,,,0.00,0.000000,,2013-06-26 07:43:00,
2013-06-26 03:53:00,58.0,57.0,-100.00,NNW,347,4.0,7.0,95,0.00,,,0.00,0.000000,,2013-06-26 07:53:00,
2013-06-26 04:01:00,58.0,57.0,-100.00,NNW,347,4.0,7.0,95,0.00,,,0.00,0.000000,,2013-06-26 08:01:00,
2013-06-26 04:34:00,57.0,56.0,-100.00,North,359,5.0,9.0,98,0.00,,,0.00,0.000000,,2013-06-26 08:34:00,
2013-06-26 04:43:00,57.0,56.0,-100.00,North,359,5.0,9.0,98,0.00,,,0.00,0.000000,,2013-06-26 08:43:00,
2013-06-26 04:53:00,57.0,56.0,-100.00,North,359,5.0,9.0,98,0.00,,,0.00,0.000000,,2013-06-26 08:53:00,
2013-06-26 05:01:00,57.0,56.0,-100.00,North,359,5.0,9.0,98,0.00,,,0.00,0.000000,,2013-06-26 09:01:00,
2013-06-26 05:33:00,57.0,56.0,-100.00,North,356,4.0,10.0,98,0.00,,,0.00,0.000000,,2013-06-26 09:33:00,
2013-06-26 05:43:00,57.0,56.0,-100.00,North,356,4.0,10.0,98,0.00,,,0.00,0.000000,,2013-06-26 09:43:00,
2013-06-26 05:53:00,57.0,56.0,-100.00,North,356,4.0,10.0,98,0.00,,,0.00,0.000000,,2013-06-26 09:53:00,
2013-06-26 06:01:00,57.0,56.0,-100.00,North,356,4.0,10.0,98,0.00,,,0.00,0.000000,,2013-06-26 10:01:00,
2013-06-26 06:34:00,57.0,57.0,-100.00,North,6,5.0,11.0,99,0.00,,,0.00,0.000000,,2013-06-26 10:34:00,
2013-06-26 06:43:00,57.0,57.0,-100.00,North,6,5.0,11.0,99,0.00,,,0.00,0.000000,,2013-06-26 10:43:00,
2013-06-26 06:53:00,57.0,57.0,-100.00,North,6,5.0,11.0,99,0.00,,,0.00,0.000000,,2013-06-26 10:53:00,
2013-06-26 07:02:00,57.0,57.0,-100.00,North,6,5.0,11.0,99,0.00,,,0.00,0.000000,,2013-06-26 11:02:00,
2013-06-26 07:33:00,58.0,57.0,-100.00,NW,316,3.0,7.0,98,0.00,,,0.00,21.000000,,2013-06-26 11:33:00,
2013-06-26 07:44:00,58.0,57.0,-100.00,NW,316,3.0,7.0,98,0.00,,,0.00,21.000000,,2013-06-26 11:44:00,
2013-06-26 07:52:00,58.0,57.0,-100.00,NW,316,3.0,7.0,98,0.00,,,0.00,21.000000,,2013-06-26 11:52:00,
2013-06-26 08:02:00,58.0,57.0,-100.00,NW,316,3.0,7.0,98,0.00,,,0.00,21.000000,,2013-06-26 12:02:00,
2013-06-26 08:34:00,60.0,58.0,-100.00,North,354,7.0,16.0,92,0.01,,,0.01,116.000000,,2013-06-26 12:34:00,
2013-06-26 08:43:00,60.0,58.0,-100.00,North,354,7.0,16.0,92,0.01,,,0.01,116.000000,,2013-06-26 12:43:00,
2013-06-26 08:52:00,60.0,58.0,-100.00,North,354,7.0,16.0,92,0.01,,,0.01,116.000000,,2013-06-26 12:52:00,
2013-06-26 09:02:00,60.0,58.0,-100.00,North,354,7.0,16.0,92,0.01,,,0.01,116.000000,,2013-06-26 13:02:00,
2013-06-26 09:34:00,64.0,63.0,-100.00,North,352,6.0,17.0,95,0.00,,,0.01,183.000000,,2013-06-26 13:34:00,
2013-06-26 09:43:00,64.0,63.0,-100.00,North,352,6.0,17.0,95,0.00,,,0.01,183.000000,,2013-06-26 13:43:00,
2013-06-26 09:53:00,64.0,63.0,-100.00,North,352,6.0,17.0,95,0.00,,,0.01,183.000000,,2013-06-26 13:53:00,
2013-06-26 10:02:00,64.0,63.0,-100.00,North,352,6.0,17.0,95,0.00,,,0.01,183.000000,,2013-06-26 14:02:00,
2013-06-26 10:34:00,64.0,61.0,-100.00,NW,306,3.0,13.0,91,0.00,,,0.01,273.000000,,2013-06-26 14:34:00,
2013-06-26 10:42:00,64.0,61.0,-100.00,NW,306,3.0,13.0,91,0.00,,,0.01,273.000000,,2013-06-26 14:42:00,
2013-06-26 10:53:00,64.0,61.0,-100.00,NW,306,3.0,13.0,91,0.00,,,0.01,273.000000,,2013-06-26 14:53:00,
2013-06-26 11:02:00,64.0,61.0,-100.00,NW,306,3.0,13.0,91,0.00,,,0.01,273.000000,,2013-06-26 15:02:00,
2013-06-26 11:34:00,65.0,63.0,-100.00,NNW,339,4.0,12.0,93,0.00,,,0.01,271.000000,,2013-06-26 15:34:00,
2013-06-26 11:44:00,65.0,63.0,-100.00,NNW,339,4.0,12.0,93,0.00,,,0.01,271.000000,,2013-06-26 15:44:00,
2013-06-26 11:53:00,65.0,63.0,-100.00,NNW,339,4.0,12.0,93,0.00,,,0.01,271.000000,,2013-06-26 15:53:00,
2013-06-26 12:01:00,65.0,63.0,-100.00,NNW,339,4.0,12.0,93,0.00,,,0.01,271.000000,,2013-06-26 16:01:00,
2013-06-26 12:34:00,70.0,66.0,-100.00,SW,231,4.0,15.0,88,0.00,,,0.01,385.000000,,2013-06-26 16:34:00,
2013-06-26 12:43:00,70.0,66.0,-100.00,SW,231,4.0,15.0,88,0.00,,,0.01,385.000000,,2013-06-26 16:43:00,
2013-06-26 12:52:00,70.0,66.0,-100.00,SW,231,4.0,15.0,88,0.00,,,0.01,385.000000,,2013-06-26 16:52:00,
2013-06-26 13:02:00,70.0,66.0,-100.00,SW,231,4.0,15.0,88,0.00,,,0.01,385.000000,,2013-06-26 17:02:00,
2013-06-26 13:33:00,71.0,66.0,-100.00,WSW,241,3.0,11.0,83,0.00,,,0.01,475.000000,,2013-06-26 17:33:00,
2013-06-26 13:43:00,71.0,66.0,-100.00,WSW,241,3.0,11.0,83,0.00,,,0.01,475.000000,,2013-06-26 17:43:00,
2013-06-26 13:52:00,71.0,66.0,-100.00,WSW,241,3.0,11.0,83,0.00,,,0.01,475.000000,,2013-06-26 17:52:00,
2013-06-26 14:01:00,71.0,66.0,-100.00,WSW,241,3.0,11.0,83,0.00,,,0.01,475.000000,,2013-06-26 18:01:00,
2013-06-26 14:34:00,73.0,63.0,-100.00,NE,36,3.0,7.0,72,0.00,,,0.01,626.000000,,2013-06-26 18:34:00,
2013-06-26 14:43:00,73.0,63.0,-100.00,NE,36,3.0,7.0,72,0.00,,,0.01,626.000000,,2013-06-26 18:43:00,
2013-06-26 14:52:00,73.0,63.0,-100.00,NE,36,3.0,7.0,72,0.00,,,0.01,626.000000,,2013-06-26 18:52:00,
2013-06-26 15:02:00,73.0,63.0,-100.00,NE,36,3.0,7.0,72,0.00,,,0.01,626.000000,,2013-06-26 19:02:00,
2013-06-26 15:33:00,71.0,64.0,-100.00,NNE,20,3.0,10.0,79,0.00,,,0.01,595.000000,,2013-06-26 19:33:00,
2013-06-26 15:43:00,71.0,64.0,-100.00,NNE,20,3.0,10.0,79,0.00,,,0.01,595.000000,,2013-06-26 19:43:00,
2013-06-26 15:52:00,71.0,64.0,-100.00,NNE,20,3.0,10.0,79,0.00,,,0.01,595.000000,,2013-06-26 19:52:00,
2013-06-26 16:01:00,71.0,64.0,-100.00,NNE,20,3.0,10.0,79,0.00,,,0.01,595.000000,,2013-06-26 20:01:00,
2013-06-26 16:34:00,67.0,61.0,-100.00,NE,55,6.0,10.0,80,0.05,,,0.06,533.000000,,2013-06-26 20:34:00,
2013-06-26 16:43:00,67.0,61.0,-100.00,NE,55,6.0,10.0,80,0.05,,,0.06,533.000000,,2013-06-26 20:43:00,
2013-06-26 16:52:00,67.0,61.0,-100.00,NE,55,6.0,10.0,80,0.05,,,0.06,533.000000,,2013-06-26 20:52:00,
2013-06-26 17:02:00,67.0,61.0,-100.00,NE,55,6.0,10.0,80,0.05,,,0.06,533.000000,,2013-06-26 21:02:00,
2013-06-26 17:33:00,69.0,67.0,-100.00,West,268,4.0,11.0,92,0.19,,,0.25,400.000000,,2013-06-26 21:33:00,
2013-06-26 17:43:00,69.0,67.0,-100.00,West,268,4.0,11.0,92,0.19,,,0.25,400.000000,,2013-06-26 21:43:00,
2013-06-26 17:52:00,69.0,67.0,-100.00,West,268,4.0,11.0,92,0.19,,,0.25,400.000000,,2013-06-26 21:52:00,
2013-06-26 18:01:00,69.0,67.0,-100.00,West,268,4.0,11.0,92,0.19,,,0.25,400.000000,,2013-06-26 22:01:00,
2013-06-26 18:34:00,65.0,63.0,-100.00,NNE,17,6.0,11.0,94,0.01,,,0.26,229.000000,,2013-06-26 22:34:00,
2013-06-26 18:43:00,65.0,63.0,-100.00,NNE,17,6.0,11.0,94,0.01,,,0.26,229.000000,,2013-06-26 22:43:00,
2013-06-26 18:52:00,65.0,63.0,-100.00,NNE,17,6.0,11.0,94,0.01,,,0.26,229.000000,,2013-06-26 22:52:00,
2013-06-26 19:02:00,65.0,63.0,-100.00,NNE,17,6.0,11.0,94,0.01,,,0.26,229.000000,,2013-06-26 23:02:00,
2013-06-26 19:34:00,66.0,63.0,-100.00,NE,53,2.0,8.0,90,0.00,,,0.26,203.000000,,2013-06-26 23:34:00,
2013-06-26 19:43:00,66.0,63.0,-100.00,NE,53,2.0,8.0,90,0.00,,,0.26,203.000000,,2013-06-26 23:43:00,
2013-06-26 19:53:00,66.0,63.0,-100.00,NE,53,2.0,8.0,90,0.00,,,0.26,203.000000,,2013-06-26 23:53:00,
2013-06-26 20:01:00,66.0,63.0,-100.00,NE,53,2.0,8.0,90,0.00,,,0.26,203.000000,,2013-06-27 00:01:00,
2013-06-26 20:34:00,64.0,61.0,-100.00,NNW,339,4.0,9.0,89,0.00,,,0.26,169.000000,,2013-06-27 00:34:00,
2013-06-26 20:43:00,64.0,61.0,-100.00,NNW,339,4.0,9.0,89,0.00,,,0.26,169.000000,,2013-06-27 00:43:00,
2013-06-26 20:53:00,64.0,61.0,-100.00,NNW,339,4.0,9.0,89,0.00,,,0.26,169.000000,,2013-06-27 00:53:00,
2013-06-26 21:01:00,64.0,61.0,-100.00,NNW,339,4.0,9.0,89,0.00,,,0.26,169.000000,,2013-06-27 01:01:00,
2013-06-26 21:32:00,61.0,58.0,-100.00,East,97,5.0,9.0,90,0.00,,,0.26,32.000000,,2013-06-27 01:32:00,
2013-06-26 21:43:00,61.0,58.0,-100.00,East,97,5.0,9.0,90,0.00,,,0.26,32.000000,,2013-06-27 01:43:00,
2013-06-26 21:53:00,61.0,58.0,-100.00,East,97,5.0,9.0,90,0.00,,,0.26,32.000000,,2013-06-27 01:53:00,
2013-06-26 22:01:00,61.0,58.0,-100.00,East,97,5.0,9.0,90,0.00,,,0.26,32.000000,,2013-06-27 02:01:00,
2013-06-26 22:32:00,60.0,57.0,-100.00,ENE,64,4.0,12.0,90,0.00,,,0.26,0.000000,,2013-06-27 02:32:00,
2013-06-26 22:42:00,60.0,57.0,-100.00,ENE,64,4.0,12.0,90,0.00,,,0.26,0.000000,,2013-06-27 02:42:00,
2013-06-26 22:52:00,60.0,57.0,-100.00,ENE,64,4.0,12.0,90,0.00,,,0.26,0.000000,,2013-06-27 02:52:00,
2013-06-26 23:02:00,60.0,57.0,-100.00,ENE,64,4.0,12.0,90,0.00,,,0.26,0.000000,,2013-06-27 03:02:00,
2013-06-26 23:33:00,60.0,59.0,-100.00,ENE,71,5.0,9.0,97,0.00,,,0.26,0.000000,,2013-06-27 03:33:00,
2013-06-26 23:42:00,60.0,59.0,-100.00,ENE,71,5.0,9.0,97,0.00,,,0.26,0.000000,,2013-06-27 03:42:00,
2013-06-26 23:52:00,60.0,59.0,-100.00,ENE,71,5.0,9.0,97,0.00,,,0.26,0.000000,,2013-06-27 03:52:00,